Location: Newark
(36.1358°N, 115.1208°W)
Time: 16:22:31
(UTC+00:00)

Explorer 7 - All Passes

Search period start: 21 February 2020 00:00
Search period end: 02 March 2020 00:00
Orbit: 485 x 679 km, 50.3° (Epoch: 21 February)

Date Brightness Start Highest point End Pass type
(mag) Time Alt. Az. Time Alt. Az. Time Alt. Az.
21 Feb - 00:27:12 10° NNW 00:29:38 15° NNE 00:32:00 10° NE daylight
21 Feb - 02:07:02 10° NW 02:10:58 50° NE 02:14:41 10° ESE visible
21 Feb - 03:48:22 10° W 03:51:07 19° SW 03:53:49 10° S visible
21 Feb - 17:46:47 10° SSE 17:49:45 16° SE 17:52:40 10° E daylight
21 Feb - 19:25:12 10° SW 19:29:57 79° NW 19:34:29 10° NE daylight
21 Feb - 21:07:38 10° WNW 21:11:04 20° NNW 21:14:21 10° NNE daylight
21 Feb - 22:51:18 10° NNW 22:52:58 12° N 22:54:35 10° NNE daylight
22 Feb - 00:31:52 10° NNW 00:34:52 19° NNE 00:37:46 10° ENE daylight
22 Feb - 02:11:53 10° NW 02:15:54 86° NE 02:19:44 10° SE visible
22 Feb - 17:50:25 10° S 17:54:29 27° SE 17:58:25 10° ENE daylight
22 Feb - 19:30:18 10° WSW 19:34:55 50° NW 19:39:19 10° NE daylight
22 Feb - 21:13:24 10° NW 21:16:17 16° NNW 21:19:04 10° NNE daylight
22 Feb - 22:56:27 10° NNW 22:58:18 12° N 23:00:06 10° NNE daylight
23 Feb - 00:36:33 10° NNW 00:40:03 25° NNE 00:43:23 10° E daylight
23 Feb - 02:16:51 10° WNW 02:20:46 52° SW 02:24:28 10° SSE visible
23 Feb - 17:54:39 10° SSW 17:59:16 46° SE 18:03:42 10° ENE daylight
23 Feb - 19:35:38 10° W 19:39:57 34° NNW 19:44:04 10° NE daylight
23 Feb - 21:19:09 10° NW 21:21:33 14° N 21:23:53 10° NNE daylight
23 Feb - 23:01:20 10° NNW 23:03:36 14° N 23:05:49 10° NE daylight
24 Feb - 00:41:16 10° NW 00:45:09 37° NNE 00:48:49 10° E daylight
24 Feb - 02:22:04 10° WNW 02:25:33 28° SW 02:28:52 10° SSE visible
24 Feb - 16:22:34 10° SE 16:24:04 11° SE 16:25:33 10° ESE daylight
24 Feb - 17:59:17 10° SW 18:04:07 76° SE 18:08:44 10° NE daylight
24 Feb - 19:41:09 10° W 19:45:03 25° NNW 19:48:48 10° NNE daylight
24 Feb - 21:24:50 10° NNW 21:26:52 13° N 21:28:52 10° NNE daylight
24 Feb - 23:06:04 10° NNW 23:08:53 17° NNE 23:11:37 10° ENE daylight
25 Feb - 00:46:02 10° NW 00:50:10 60° NE 00:54:02 10° ESE daylight
25 Feb - 02:27:45 10° W 02:30:14 16° SW 02:32:38 10° SSW visible
25 Feb - 16:25:14 10° S 16:28:44 20° SE 16:32:10 10° E daylight
25 Feb - 18:04:12 10° WSW 18:09:01 69° NW 18:13:38 10° NE daylight
25 Feb - 19:46:48 10° WNW 19:50:13 20° NNW 19:53:32 10° NNE daylight
25 Feb - 21:30:14 10° NNW 21:32:12 13° N 21:34:09 10° NNE daylight
25 Feb - 23:10:46 10° NNW 23:14:07 21° NNE 23:17:18 10° ENE daylight
26 Feb - 00:50:56 10° NW 00:55:05 80° SW 00:58:59 10° SE daylight
26 Feb - 16:29:07 10° SSW 16:33:28 33° SE 16:37:42 10° ENE daylight
26 Feb - 18:09:22 10° WSW 18:14:00 45° NNW 18:18:27 10° NE daylight
26 Feb - 19:52:33 10° NW 19:55:28 16° NNW 19:58:18 10° NNE daylight
26 Feb - 21:35:19 10° NNW 21:37:32 13° N 21:39:43 10° NE daylight
26 Feb - 23:15:28 10° NW 23:19:16 29° NNE 23:22:51 10° E daylight
27 Feb - 00:55:58 10° WNW 00:59:54 44° SW 01:03:37 10° SSE daylight
27 Feb - 16:33:30 10° SSW 16:38:15 54° SE 16:42:54 10° ENE daylight
27 Feb - 18:14:44 10° W 18:19:02 32° NNW 18:23:12 10° NE daylight
27 Feb - 19:58:16 10° NW 20:00:46 14° N 20:03:11 10° NNE daylight
27 Feb - 21:40:11 10° NNW 21:42:51 15° NNE 21:45:26 10° NE daylight
27 Feb - 23:20:12 10° NW 23:24:20 44° NNE 23:28:12 10° ESE daylight
28 Feb - 01:01:16 10° WNW 01:04:38 24° SW 01:07:51 10° S daylight
28 Feb - 15:00:32 10° SSE 15:03:01 14° SE 15:05:28 10° E daylight
28 Feb - 16:38:12 10° SW 16:43:06 88° SE 16:47:52 10° NE daylight
28 Feb - 18:20:17 10° WNW 18:24:10 24° NNW 18:27:56 10° NNE daylight
28 Feb - 20:03:50 10° NNW 20:06:05 13° N 20:08:17 10° NNE daylight
28 Feb - 21:44:55 10° NNW 21:48:06 19° NNE 21:51:09 10° ENE daylight
28 Feb - 23:25:01 10° NW 23:29:19 72° NE 23:33:19 10° ESE daylight
29 Feb - 01:07:11 10° W 01:09:18 14° SW 01:11:21 10° SSW daylight
29 Feb - 15:03:49 10° S 15:07:41 23° SE 15:11:31 10° ENE daylight
29 Feb - 16:43:12 10° WSW 16:48:02 60° NW 16:52:44 10° NE daylight
29 Feb - 18:25:58 10° WNW 18:29:22 19° NNW 18:32:41 10° NNE daylight
29 Feb - 20:09:08 10° NNW 20:11:25 13° N 20:13:39 10° NNE daylight
29 Feb - 21:49:38 10° NNW 21:53:18 24° NNE 21:56:47 10° E daylight
29 Feb - 23:29:56 10° NW 23:34:12 67° SW 23:38:11 10° SE daylight
01 Mar - 15:07:53 10° SSW 15:12:25 38° SE 15:16:54 10° ENE daylight
01 Mar - 16:48:26 10° WSW 16:53:02 40° NNW 16:57:32 10° NE daylight
01 Mar - 18:31:41 10° NW 18:34:38 16° NNW 18:37:30 10° NNE daylight
01 Mar - 20:14:10 10° NNW 20:16:45 15° N 20:19:15 10° NE daylight
01 Mar - 21:54:22 10° NW 21:58:26 34° NNE 22:02:15 10° E daylight
01 Mar - 23:35:02 10° WNW 23:39:00 37° SW 23:42:43 10° SSE daylight
